,,PA_Meas_PMT16A,,PR_Meas_QMR101_102,,RH_Meas_QMH101,,SR_Meas_QMS101,,TA_Meas_QMH101,,GenWind,,GenWind,
time,status,PA,status,PR,status,RH,status,SR,status,TA,status,DirAvg,status,SpdAvg,
2011-10-05, 00:00:05,VALID,918.319,VALID,0,VALID,94.0958,VALID,0.107441,VALID,20.5789,VALID,353,VALID,0.921484,
2011-10-05, 00:01:05,VALID,918.307,VALID,0,VALID,94.1797,VALID,0,VALID,20.5594,VALID,13,VALID,1.08008,
2011-10-05, 00:02:05,VALID,918.298,VALID,0,VALID,94.2635,VALID,0,VALID,20.5399,VALID,13,VALID,1.28516,
2011-10-05, 00:03:05,VALID,918.248,VALID,0,VALID,94.3169,VALID,0,VALID,20.4993,VALID,13,VALID,1.15664,
2011-10-05, 00:04:05,VALID,918.238,VALID,0,VALID,94.416,VALID,0,VALID,20.4829,VALID,13,VALID,1.1918,
2011-10-05, 00:05:05,VALID,918.221,VALID,0,VALID,94.5685,VALID,0,VALID,20.4439,VALID,13,VALID,1.08164,
2011-10-05, 00:06:05,VALID,918.198,VALID,0,VALID,94.6752,VALID,0,VALID,20.4244,VALID,13,VALID,1.03984,
2011-10-05, 00:07:05,VALID,918.212,VALID,0,VALID,94.7743,VALID,0,VALID,20.3838,VALID,13,VALID,1.09414,
2011-10-05, 00:08:05,VALID,918.173,VALID,0,VALID,94.942,VALID,0,VALID,20.3854,VALID,13,VALID,0.700391,
2011-10-05, 00:09:05,VALID,918.162,VALID,0,VALID,95.0183,VALID,0,VALID,20.4244,VALID,13,VALID,0.744531,
2011-10-05, 00:10:05,VALID,918.156,VALID,0,VALID,94.9268,VALID,0,VALID,20.4244,VALID,12,VALID,0.985156,
2011-10-05, 00:11:05,VALID,918.134,VALID,0,VALID,94.8734,VALID,0,VALID,20.3643,VALID,323,VALID,0.789844,
2011-10-05, 00:12:05,VALID,918.119,VALID,0,VALID,94.9573,VALID,0,VALID,20.3448,VALID,323,VALID,0.605859,
2011-10-05, 00:13:05,VALID,918.114,VALID,0,VALID,94.9954,VALID,0,VALID,20.3854,VALID,323,VALID,0.960156,
2011-10-05, 00:14:05,VALID,918.103,VALID,0,VALID,94.9725,VALID,0,VALID,20.3464,VALID,323,VALID,0.485547,
2011-10-05, 00:15:05,VALID,918.057,VALID,0,VALID,95.0259,VALID,0,VALID,20.3269,VALID,18,VALID,0.869922,
2011-10-05, 00:16:05,VALID,918.069,VALID,0,VALID,94.9878,VALID,0,VALID,20.3074,VALID,18,VALID,1.05117,
2011-10-05, 00:17:05,VALID,918.044,VALID,0,VALID,95.0945,VALID,0,VALID,20.3074,VALID,18,VALID,1.31953,
2011-10-05, 00:18:05,VALID,917.985,VALID,0,VALID,95.0869,VALID,0,VALID,20.2879,VALID,18,VALID,1.26406,
2011-10-05, 00:19:05,VALID,917.969,VALID,0,VALID,95.064,VALID,0,VALID,20.2473,VALID,20,VALID,1.77969,
2011-10-05, 00:20:05,VALID,917.962,VALID,0,VALID,95.2088,VALID,0,VALID,20.2668,VALID,40,VALID,0.938281,
2011-10-05, 00:21:05,VALID,917.954,VALID,0,VALID,95.2241,VALID,0,VALID,20.2668,VALID,2,VALID,0.962109,
2011-10-05, 00:22:05,VALID,917.965,VALID,0,VALID,95.2775,VALID,0.107441,VALID,20.2863,VALID,2,VALID,0.788281,
2011-10-05, 00:23:05,VALID,917.904,VALID,0,VALID,95.3384,VALID,0,VALID,20.3058,VALID,2,VALID,0.302344,
2011-10-05, 00:24:05,VALID,917.901,VALID,0,VALID,95.2698,VALID,0.107441,VALID,20.3253,VALID,2,VALID,0.540625,
2011-10-05, 00:25:05,VALID,917.873,VALID,0,VALID,95.2165,VALID,0,VALID,20.3448,VALID,2,VALID,0.325781,
2011-10-05, 00:26:05,VALID,917.86,VALID,0,VALID,95.1707,VALID,0,VALID,20.3838,VALID,2,VALID,0.428125,
2011-10-05, 00:27:05,VALID,917.841,VALID,0,VALID,95.1707,VALID,0.107441,VALID,20.4033,VALID,2,VALID,0.358594,
2011-10-05, 00:28:05,VALID,917.804,VALID,0,VALID,95.0183,VALID,0,VALID,20.4244,VALID,3,VALID,0.772266,
2011-10-05, 00:29:05,VALID,917.792,VALID,0,VALID,94.7667,VALID,0,VALID,20.3838,VALID,2,VALID,0.750391,
2011-10-05, 00:30:05,VALID,917.777,VALID,0,VALID,94.8582,VALID,0,VALID,20.3838,VALID,2,VALID,0.485156,
2011-10-05, 00:31:05,VALID,917.804,VALID,0,VALID,94.9115,VALID,0,VALID,20.4033,VALID,2,VALID,0.512109,
2011-10-05, 00:32:05,VALID,917.8,VALID,0,VALID,94.7819,VALID,0.107441,VALID,20.4228,VALID,2,VALID,0.525781,
2011-10-05, 00:33:05,VALID,917.776,VALID,0,VALID,94.7438,VALID,0.107441,VALID,20.4813,VALID,2,VALID,0.603906,
2011-10-05, 00:34:05,VALID,917.781,VALID,0,VALID,94.5227,VALID,0,VALID,20.4829,VALID,2,VALID,0.444922,
2011-10-05, 00:35:05,VALID,917.771,VALID,0,VALID,94.4236,VALID,0,VALID,20.4634,VALID,2,VALID,0.272266,
2011-10-05, 00:36:05,VALID,917.796,VALID,0,VALID,94.3474,VALID,0,VALID,20.4439,VALID,2,VALID,0.580469,
2011-10-05, 00:37:05,VALID,917.754,VALID,0,VALID,94.4008,VALID,0,VALID,20.4049,VALID,2,VALID,0.424609,
2011-10-05, 00:38:05,VALID,917.78,VALID,0,VALID,94.4313,VALID,0,VALID,20.4049,VALID,17,VALID,1.24766,
2011-10-05, 00:39:05,VALID,917.744,VALID,0,VALID,94.4236,VALID,0,VALID,20.3464,VALID,17,VALID,1.35781,
2011-10-05, 00:40:05,VALID,917.738,VALID,0,VALID,94.4694,VALID,0,VALID,20.3269,VALID,17,VALID,0.943359,
2011-10-05, 00:41:05,VALID,917.753,VALID,0,VALID,94.4694,VALID,0,VALID,20.3269,VALID,17,VALID,1.35039,
2011-10-05, 00:42:05,VALID,917.731,VALID,0,VALID,94.5304,VALID,0,VALID,20.3074,VALID,17,VALID,1.05938,
2011-10-05, 00:43:05,VALID,917.688,VALID,0,VALID,94.4465,VALID,0,VALID,20.2879,VALID,17,VALID,0.710938,
2011-10-05, 00:44:05,VALID,917.675,VALID,0,VALID,94.5837,VALID,0,VALID,20.2473,VALID,17,VALID,0.93125,
2011-10-05, 00:45:05,VALID,917.671,VALID,0,VALID,94.6752,VALID,0,VALID,20.2684,VALID,17,VALID,0.905469,
2011-10-05, 00:46:05,VALID,917.648,VALID,0,VALID,94.7591,VALID,0,VALID,20.2098,VALID,17,VALID,0.815234,
2011-10-05, 00:47:05,VALID,917.625,VALID,0,VALID,94.7896,VALID,0,VALID,20.2098,VALID,17,VALID,1.06602,
2011-10-05, 00:48:05,VALID,917.587,VALID,0,VALID,94.8277,VALID,0,VALID,20.2098,VALID,17,VALID,0.694922,
2011-10-05, 00:49:05,VALID,917.611,VALID,0,VALID,94.8734,VALID,0,VALID,20.2098,VALID,17,VALID,0.539844,
2011-10-05, 00:50:05,VALID,917.587,VALID,0,VALID,94.8353,VALID,0,VALID,20.2098,VALID,17,VALID,0.437891,
2011-10-05, 00:51:05,VALID,917.552,VALID,0,VALID,94.8887,VALID,0,VALID,20.2098,VALID,17,VALID,0.333984,
2011-10-05, 00:52:05,VALID,917.569,VALID,0,VALID,94.8505,VALID,0,VALID,20.2098,VALID,17,VALID,0.580469,
2011-10-05, 00:53:05,VALID,917.552,VALID,0,VALID,94.7667,VALID,0,VALID,20.2293,VALID,17,VALID,0.657422,
2011-10-05, 00:54:05,VALID,917.543,VALID,0,VALID,94.7514,VALID,0,VALID,20.2098,VALID,17,VALID,0.501172,
2011-10-05, 00:55:05,VALID,917.53,VALID,0,VALID,94.7896,VALID,0,VALID,20.1903,VALID,17,VALID,0.449219,
2011-10-05, 00:56:05,VALID,917.538,VALID,0,VALID,94.8277,VALID,0,VALID,20.1708,VALID,17,VALID,0.709766,
2011-10-05, 00:57:05,VALID,917.505,VALID,0,VALID,94.9801,VALID,0,VALID,20.1513,VALID,17,VALID,0.678516,
2011-10-05, 00:58:05,VALID,917.49,VALID,0,VALID,94.9878,VALID,0,VALID,20.1318,VALID,17,VALID,0.740625,
2011-10-05, 00:59:05,VALID,917.477,VALID,0,VALID,95.0335,VALID,0,VALID,20.1123,VALID,17,VALID,0.645703,
2011-10-05, 01:00:05,VALID,917.454,VALID,0,VALID,95.1174,VALID,0,VALID,20.0928,VALID,17,VALID,0.314063,
2011-10-05, 01:01:05,VALID,917.417,VALID,0,VALID,95.2241,VALID,0,VALID,20.0928,VALID,17,VALID,0.382422,
2011-10-05, 01:02:05,VALID,917.373,VALID,0,VALID,95.3156,VALID,0,VALID,20.0733,VALID,17,VALID,0.869922,
2011-10-05, 01:03:05,VALID,917.354,VALID,0,VALID,95.3232,VALID,0,VALID,20.0733,VALID,17,VALID,0.747266,
2011-10-05, 01:04:05,VALID,917.357,VALID,0,VALID,95.3842,VALID,0,VALID,20.0538,VALID,17,VALID,0.665625,
2011-10-05, 01:05:05,VALID,917.34,VALID,0,VALID,95.4223,VALID,0,VALID,20.0343,VALID,17,VALID,0.676172,
2011-10-05, 01:06:05,VALID,917.319,VALID,0,VALID,95.4833,VALID,0,VALID,19.9938,VALID,17,VALID,0,
2011-10-05, 01:07:05,VALID,917.324,VALID,0,VALID,95.6053,VALID,0,VALID,19.9938,VALID,17,VALID,0,
2011-10-05, 01:08:05,VALID,917.33,VALID,0,VALID,95.6053,VALID,0,VALID,20.0343,VALID,17,VALID,0.426562,
2011-10-05, 01:09:05,VALID,917.286,VALID,0,VALID,95.5824,VALID,0,VALID,20.0148,VALID,17,VALID,0.583594,
2011-10-05, 01:10:05,VALID,917.279,VALID,0,VALID,95.5748,VALID,0,VALID,20.0163,VALID,17,VALID,0.818359,
2011-10-05, 01:11:05,VALID,917.284,VALID,0,VALID,95.651,VALID,0,VALID,19.9953,VALID,17,VALID,0.611719,
2011-10-05, 01:12:05,VALID,917.258,VALID,0,VALID,95.6205,VALID,0,VALID,19.9953,VALID,17,VALID,0.491016,
2011-10-05, 01:13:05,VALID,917.279,VALID,0,VALID,95.6281,VALID,0,VALID,19.9758,VALID,17,VALID,0.407422,
2011-10-05, 01:14:05,VALID,917.277,VALID,0,VALID,95.7044,VALID,0,VALID,19.9758,VALID,17,VALID,1.06914,
2011-10-05, 01:15:04,VALID,917.244,VALID,0,VALID,95.6891,VALID,0,VALID,19.9953,VALID,17,VALID,0.691406,
2011-10-05, 01:16:04,VALID,917.249,VALID,0,VALID,95.712,VALID,0,VALID,19.9953,VALID,17,VALID,0.697266,
2011-10-05, 01:17:04,VALID,917.206,VALID,0,VALID,95.6586,VALID,0,VALID,19.9938,VALID,17,VALID,0.809766,
2011-10-05, 01:18:04,VALID,917.213,VALID,0,VALID,95.6129,VALID,0,VALID,20.0148,VALID,17,VALID,1.06016,
2011-10-05, 01:19:04,VALID,917.229,VALID,0,VALID,95.6053,VALID,0,VALID,19.9938,VALID,18,VALID,1.17031,
2011-10-05, 01:20:04,VALID,917.197,VALID,0,VALID,95.6357,VALID,0,VALID,19.9938,VALID,17,VALID,0.902734,
2011-10-05, 01:21:04,VALID,917.228,VALID,0,VALID,95.6586,VALID,0.107441,VALID,19.9743,VALID,18,VALID,1.41875,
2011-10-05, 01:22:04,VALID,917.247,VALID,0,VALID,95.7349,VALID,0,VALID,19.9353,VALID,18,VALID,1.37148,
2011-10-05, 01:23:04,VALID,917.243,VALID,0,VALID,95.7654,VALID,0.107441,VALID,19.9548,VALID,18,VALID,1.17148,
2011-10-05, 01:24:04,VALID,917.266,VALID,0,VALID,95.834,VALID,0,VALID,19.9353,VALID,18,VALID,0.823828,
2011-10-05, 01:25:04,VALID,917.265,VALID,0,VALID,95.8645,VALID,0.107441,VALID,19.9548,VALID,18,VALID,0.369141,
2011-10-05, 01:26:04,VALID,917.264,VALID,0,VALID,95.8492,VALID,0,VALID,19.9743,VALID,18,VALID,0.617188,
2011-10-05, 01:27:04,VALID,917.265,VALID,0,VALID,95.8645,VALID,0,VALID,19.9533,VALID,18,VALID,0.562109,
2011-10-05, 01:28:04,VALID,917.253,VALID,0,VALID,95.8645,VALID,0,VALID,19.9938,VALID,18,VALID,0.414453,
2011-10-05, 01:29:04,VALID,917.251,VALID,0,VALID,95.834,VALID,0,VALID,19.9938,VALID,18,VALID,0.507031,
2011-10-05, 01:30:04,VALID,917.241,VALID,0,VALID,95.8263,VALID,0,VALID,19.9938,VALID,18,VALID,0.300391,
2011-10-05, 01:31:04,VALID,917.22,VALID,0,VALID,95.834,VALID,0,VALID,19.9938,VALID,18,VALID,0.438672,
2011-10-05, 01:32:04,VALID,917.224,VALID,0,VALID,95.8492,VALID,0,VALID,20.0343,VALID,18,VALID,0.810547,
2011-10-05, 01:33:04,VALID,917.23,VALID,0,VALID,95.7882,VALID,0,VALID,20.0133,VALID,18,VALID,0.839453,
2011-10-05, 01:34:04,VALID,917.224,VALID,0,VALID,95.7806,VALID,0,VALID,20.0133,VALID,18,VALID,0.648828,
2011-10-05, 01:35:04,VALID,917.202,VALID,0,VALID,95.7882,VALID,0,VALID,20.0133,VALID,18,VALID,0.527734,
2011-10-05, 01:36:04,VALID,917.222,VALID,0,VALID,95.6967,VALID,0,VALID,20.0133,VALID,18,VALID,0.705078,
2011-10-05, 01:37:04,VALID,917.183,VALID,0,VALID,95.7044,VALID,0,VALID,20.0328,VALID,18,VALID,0.422266,
2011-10-05, 01:38:04,VALID,917.173,VALID,0,VALID,95.6967,VALID,0,VALID,20.0328,VALID,18,VALID,0.523828,
2011-10-05, 01:39:04,VALID,917.135,VALID,0,VALID,95.7196,VALID,0,VALID,20.0718,VALID,18,VALID,0.286719,
2011-10-05, 01:40:04,VALID,917.151,VALID,0,VALID,95.651,VALID,0,VALID,20.0718,VALID,18,VALID,0.417578,
2011-10-05, 01:41:04,VALID,917.155,VALID,0,VALID,95.5824,VALID,0,VALID,20.0718,VALID,18,VALID,0.109375,
2011-10-05, 01:42:04,VALID,917.133,VALID,0,VALID,95.5062,VALID,0,VALID,20.0508,VALID,18,VALID,0,
2011-10-05, 01:43:04,VALID,917.155,VALID,0,VALID,95.4833,VALID,0,VALID,20.0913,VALID,18,VALID,0,
2011-10-05, 01:44:04,VALID,917.145,VALID,0,VALID,95.4528,VALID,0,VALID,20.0913,VALID,18,VALID,0,
2011-10-05, 01:45:04,VALID,917.149,VALID,0,VALID,95.3994,VALID,0.107441,VALID,20.1093,VALID,18,VALID,0,
2011-10-05, 01:46:04,VALID,917.139,VALID,0,VALID,95.3689,VALID,0,VALID,20.1498,VALID,18,VALID,0,
2011-10-05, 01:47:04,VALID,917.121,VALID,0,VALID,95.3079,VALID,0,VALID,20.1498,VALID,18,VALID,0.0582031,
2011-10-05, 01:48:04,VALID,917.113,VALID,0,VALID,95.2241,VALID,0,VALID,20.1498,VALID,18,VALID,0.270703,
2011-10-05, 01:49:04,VALID,917.085,VALID,0,VALID,95.2165,VALID,0,VALID,20.1318,VALID,18,VALID,0.150781,
2011-10-05, 01:50:04,VALID,917.091,VALID,0,VALID,95.1631,VALID,0,VALID,20.1318,VALID,18,VALID,0,
2011-10-05, 01:51:04,VALID,917.08,VALID,0,VALID,95.1479,VALID,0,VALID,20.1318,VALID,18,VALID,0.00117188,
2011-10-05, 01:52:04,VALID,917.097,VALID,0,VALID,95.1783,VALID,0,VALID,20.1708,VALID,18,VALID,0,
2011-10-05, 01:53:04,VALID,917.102,VALID,0,VALID,95.0869,VALID,0,VALID,20.1513,VALID,18,VALID,0,
2011-10-05, 01:54:04,VALID,917.068,VALID,0,VALID,94.9801,VALID,0,VALID,20.1724,VALID,18,VALID,0,
2011-10-05, 01:55:04,VALID,917.075,VALID,0,VALID,94.9344,VALID,0,VALID,20.1318,VALID,18,VALID,0,
2011-10-05, 01:56:04,VALID,917.065,VALID,0,VALID,95.0183,VALID,0,VALID,20.1529,VALID,18,VALID,0.313281,
2011-10-05, 01:57:04,VALID,917.041,VALID,0,VALID,95.2546,VALID,0,VALID,20.1513,VALID,18,VALID,0.1125,
2011-10-05, 01:58:04,VALID,917.026,VALID,0,VALID,95.3689,VALID,0,VALID,20.1903,VALID,18,VALID,0,
2011-10-05, 01:59:04,VALID,916.998,VALID,0,VALID,95.4452,VALID,0,VALID,20.2489,VALID,18,VALID,0,
2011-10-05, 02:00:04,VALID,917.028,VALID,0,VALID,95.3308,VALID,0,VALID,20.2489,VALID,18,VALID,0.174609,
2011-10-05, 02:01:04,VALID,917.032,VALID,0,VALID,95.1479,VALID,0,VALID,20.2684,VALID,18,VALID,0,
2011-10-05, 02:02:04,VALID,917.009,VALID,0,VALID,94.9192,VALID,0,VALID,20.2684,VALID,18,VALID,0,
2011-10-05, 02:03:04,VALID,916.984,VALID,0,VALID,94.7286,VALID,0,VALID,20.2668,VALID,18,VALID,0,
2011-10-05, 02:04:04,VALID,917.021,VALID,0,VALID,94.6142,VALID,0,VALID,20.3253,VALID,18,VALID,0,
2011-10-05, 02:05:04,VALID,917.039,VALID,0,VALID,94.4236,VALID,0.107441,VALID,20.3433,VALID,18,VALID,0,
2011-10-05, 02:06:04,VALID,917.014,VALID,0,VALID,94.1111,VALID,0,VALID,20.3433,VALID,18,VALID,0,
2011-10-05, 02:07:04,VALID,917.019,VALID,0,VALID,93.9586,VALID,0,VALID,20.3854,VALID,18,VALID,0.169922,
2011-10-05, 02:08:04,VALID,917.03,VALID,0,VALID,93.7756,VALID,0,VALID,20.3448,VALID,18,VALID,0.447656,
2011-10-05, 02:09:04,VALID,917.029,VALID,0,VALID,93.6384,VALID,0,VALID,20.3253,VALID,18,VALID,0,
2011-10-05, 02:10:04,VALID,916.992,VALID,0,VALID,93.5469,VALID,0.107441,VALID,20.3253,VALID,18,VALID,0.307813,
2011-10-05, 02:11:04,VALID,917.013,VALID,0,VALID,93.5774,VALID,0,VALID,20.3058,VALID,18,VALID,0.45625,
2011-10-05, 02:12:04,VALID,916.979,VALID,0,VALID,93.7528,VALID,0,VALID,20.3058,VALID,18,VALID,0.476172,
2011-10-05, 02:13:04,VALID,916.967,VALID,0,VALID,93.8824,VALID,0,VALID,20.3058,VALID,18,VALID,0.100391,
2011-10-05, 02:14:04,VALID,916.935,VALID,0,VALID,93.9357,VALID,0,VALID,20.2863,VALID,18,VALID,0,
2011-10-05, 02:15:04,VALID,916.962,VALID,0,VALID,94.0272,VALID,0,VALID,20.2879,VALID,18,VALID,0,
2011-10-05, 02:16:04,VALID,916.963,VALID,0,VALID,94.1568,VALID,0,VALID,20.2863,VALID,18,VALID,0.3875,
2011-10-05, 02:17:04,VALID,916.94,VALID,0,VALID,94.2102,VALID,0,VALID,20.3269,VALID,18,VALID,0.130469,
2011-10-05, 02:18:04,VALID,916.924,VALID,0,VALID,94.2407,VALID,0.107441,VALID,20.2863,VALID,18,VALID,0.105469,
2011-10-05, 02:19:04,VALID,916.918,VALID,0,VALID,94.3245,VALID,0,VALID,20.2863,VALID,18,VALID,0.0597656,
2011-10-05, 02:20:04,VALID,916.897,VALID,0,VALID,94.416,VALID,0,VALID,20.2863,VALID,18,VALID,0.0804688,
2011-10-05, 02:21:04,VALID,916.942,VALID,0,VALID,94.4313,VALID,0,VALID,20.2668,VALID,18,VALID,0.340234,
2011-10-05, 02:22:04,VALID,916.933,VALID,0,VALID,94.5227,VALID,0,VALID,20.2473,VALID,18,VALID,0.303906,
2011-10-05, 02:23:04,VALID,916.922,VALID,0,VALID,94.6066,VALID,0,VALID,20.2083,VALID,18,VALID,0.445703,
2011-10-05, 02:24:04,VALID,916.916,VALID,0,VALID,94.7667,VALID,0,VALID,20.1888,VALID,18,VALID,0.439063,
2011-10-05, 02:25:04,VALID,916.9,VALID,0,VALID,94.9344,VALID,0,VALID,20.1693,VALID,18,VALID,0.34375,
2011-10-05, 02:26:04,VALID,916.933,VALID,0,VALID,95.0792,VALID,0,VALID,20.1888,VALID,18,VALID,0.270312,
2011-10-05, 02:27:04,VALID,916.913,VALID,0,VALID,95.2241,VALID,0,VALID,20.2278,VALID,18,VALID,0.439453,
2011-10-05, 02:28:04,VALID,916.929,VALID,0,VALID,95.2317,VALID,0.107441,VALID,20.2278,VALID,18,VALID,0.331641,
2011-10-05, 02:29:04,VALID,916.909,VALID,0,VALID,95.1097,VALID,0,VALID,20.2083,VALID,18,VALID,0.451562,
2011-10-05, 02:30:04,VALID,916.949,VALID,0,VALID,95.2088,VALID,0,VALID,20.2278,VALID,18,VALID,0.675781,
2011-10-05, 02:31:04,VALID,916.949,VALID,0,VALID,95.0945,VALID,0,VALID,20.2473,VALID,18,VALID,0.627344,
2011-10-05, 02:32:04,VALID,916.978,VALID,0,VALID,95.125,VALID,0,VALID,20.2473,VALID,18,VALID,0.467578,
2011-10-05, 02:33:04,VALID,916.968,VALID,0,VALID,95.0488,VALID,0,VALID,20.2668,VALID,18,VALID,0.617578,
2011-10-05, 02:34:04,VALID,916.945,VALID,0,VALID,94.8887,VALID,0,VALID,20.2278,VALID,18,VALID,0.582812,
2011-10-05, 02:35:04,VALID,916.994,VALID,0,VALID,94.82,VALID,0,VALID,20.1888,VALID,18,VALID,0.666797,
2011-10-05, 02:36:04,VALID,916.974,VALID,0,VALID,94.8658,VALID,0,VALID,20.1498,VALID,18,VALID,0.4375,
2011-10-05, 02:37:04,VALID,916.999,VALID,0,VALID,94.9649,VALID,0,VALID,20.1303,VALID,18,VALID,0.383594,
2011-10-05, 02:38:04,VALID,916.977,VALID,0,VALID,94.9268,VALID,0,VALID,20.1108,VALID,18,VALID,0.3875,
2011-10-05, 02:39:04,VALID,916.961,VALID,0,VALID,95.003,VALID,0,VALID,20.0913,VALID,18,VALID,0.046875,
2011-10-05, 02:40:04,VALID,916.949,VALID,0,VALID,95.064,VALID,0,VALID,20.0718,VALID,18,VALID,0,
2011-10-05, 02:41:04,VALID,916.983,VALID,0,VALID,95.1021,VALID,0,VALID,20.0718,VALID,18,VALID,0,
2011-10-05, 02:42:04,VALID,916.972,VALID,0,VALID,95.1555,VALID,0,VALID,20.0718,VALID,18,VALID,0,
2011-10-05, 02:43:04,VALID,916.992,VALID,0,VALID,95.1783,VALID,0,VALID,20.0718,VALID,18,VALID,0,
2011-10-05, 02:44:04,VALID,916.968,VALID,0,VALID,95.3003,VALID,0,VALID,20.1108,VALID,18,VALID,0.762891,
2011-10-05, 02:45:04,VALID,916.947,VALID,0,VALID,95.2393,VALID,0,VALID,20.1108,VALID,18,VALID,0.895703,
2011-10-05, 02:46:04,VALID,916.953,VALID,0,VALID,95.1936,VALID,0,VALID,20.0718,VALID,18,VALID,0.954687,
2011-10-05, 02:47:04,VALID,916.973,VALID,0,VALID,95.2546,VALID,0,VALID,20.0718,VALID,18,VALID,0.937891,
2011-10-05, 02:48:04,VALID,916.94,VALID,0,VALID,95.3003,VALID,0,VALID,20.0328,VALID,18,VALID,1.07656,
2011-10-05, 02:49:04,VALID,916.931,VALID,0,VALID,95.3537,VALID,0,VALID,20.0148,VALID,18,VALID,0.967969,
2011-10-05, 02:50:04,VALID,916.935,VALID,0,VALID,95.468,VALID,0,VALID,19.9953,VALID,18,VALID,1.0168,
2011-10-05, 02:51:04,VALID,916.925,VALID,0,VALID,95.5671,VALID,0,VALID,19.9563,VALID,18,VALID,0.919141,
2011-10-05, 02:52:04,VALID,916.93,VALID,0,VALID,95.712,VALID,0,VALID,19.9758,VALID,18,VALID,0.653516,
2011-10-05, 02:53:04,VALID,916.911,VALID,0,VALID,95.8111,VALID,0,VALID,19.9953,VALID,18,VALID,0.845312,
2011-10-05, 02:54:04,VALID,916.911,VALID,0,VALID,95.8035,VALID,0,VALID,19.9368,VALID,346,VALID,1.56953,
2011-10-05, 02:55:04,VALID,916.904,VALID,0,VALID,95.8568,VALID,0,VALID,19.9368,VALID,343,VALID,0.881641,
2011-10-05, 02:56:04,VALID,916.932,VALID,0,VALID,96.0245,VALID,0,VALID,19.9383,VALID,14,VALID,0.392578,
2011-10-05, 02:57:04,VALID,916.948,VALID,0,VALID,96.1236,VALID,0,VALID,19.9368,VALID,14,VALID,0,
2011-10-05, 02:58:04,VALID,916.907,VALID,0,VALID,96.177,VALID,0,VALID,19.9563,VALID,14,VALID,0.769531,
2011-10-05, 02:59:04,VALID,916.955,VALID,0,VALID,96.1999,VALID,0,VALID,19.9563,VALID,18,VALID,1.23281,
2011-10-05, 03:00:04,VALID,916.931,VALID,0,VALID,96.2456,VALID,0,VALID,19.9773,VALID,26,VALID,0.919531,
2011-10-05, 03:01:04,VALID,916.955,VALID,0,VALID,96.2609,VALID,0,VALID,19.9563,VALID,26,VALID,0.460547,
2011-10-05, 03:02:04,VALID,916.975,VALID,0,VALID,96.1999,VALID,0,VALID,19.9368,VALID,9,VALID,0.970312,
2011-10-05, 03:03:04,VALID,916.958,VALID,0,VALID,96.2914,VALID,0,VALID,19.9173,VALID,26,VALID,0.553906,
2011-10-05, 03:04:04,VALID,916.986,VALID,0,VALID,96.3295,VALID,0,VALID,19.9368,VALID,22,VALID,0.527344,
2011-10-05, 03:05:04,VALID,916.954,VALID,0,VALID,96.3676,VALID,0,VALID,19.9368,VALID,5,VALID,0.894141,
2011-10-05, 03:06:04,VALID,917.004,VALID,0,VALID,96.3752,VALID,0,VALID,19.9173,VALID,5,VALID,0.728125,
2011-10-05, 03:07:04,VALID,916.978,VALID,0,VALID,96.421,VALID,0,VALID,19.9383,VALID,5,VALID,0.690625,
2011-10-05, 03:08:04,VALID,916.968,VALID,0,VALID,96.5048,VALID,0,VALID,19.9368,VALID,5,VALID,0.858594,
2011-10-05, 03:09:04,VALID,916.948,VALID,0,VALID,96.3295,VALID,0,VALID,19.8978,VALID,6,VALID,1.26797,
2011-10-05, 03:10:04,VALID,916.943,VALID,0,VALID,96.3447,VALID,0,VALID,19.8783,VALID,6,VALID,1.13711,
2011-10-05, 03:11:04,VALID,916.945,VALID,0,VALID,96.3447,VALID,0,VALID,19.8783,VALID,6,VALID,0.986719,
2011-10-05, 03:12:04,VALID,916.958,VALID,0,VALID,96.3447,VALID,0,VALID,19.8588,VALID,343,VALID,0.823828,
2011-10-05, 03:13:04,VALID,916.955,VALID,0,VALID,96.3829,VALID,0,VALID,19.8978,VALID,343,VALID,0.471875,
2011-10-05, 03:14:04,VALID,916.966,VALID,0,VALID,96.2914,VALID,0,VALID,19.8783,VALID,343,VALID,0.717188,
2011-10-05, 03:15:04,VALID,916.963,VALID,0,VALID,96.2609,VALID,0,VALID,19.8783,VALID,343,VALID,0.4875,
2011-10-05, 03:16:04,VALID,916.958,VALID,0,VALID,96.3066,VALID,0,VALID,19.8978,VALID,343,VALID,0,
2011-10-05, 03:17:04,VALID,916.922,VALID,0,VALID,96.3447,VALID,0,VALID,19.9173,VALID,343,VALID,0.00117188,
2011-10-05, 03:18:04,VALID,916.922,VALID,0,VALID,96.3142,VALID,0,VALID,19.9563,VALID,343,VALID,0.208203,
2011-10-05, 03:19:04,VALID,916.879,VALID,0,VALID,96.2837,VALID,0,VALID,19.9563,VALID,343,VALID,0.0121094,
2011-10-05, 03:20:04,VALID,916.841,VALID,0,VALID,96.2914,VALID,0,VALID,19.9368,VALID,343,VALID,0.277344,
2011-10-05, 03:21:04,VALID,916.827,VALID,0,VALID,96.3066,VALID,0,VALID,19.9158,VALID,343,VALID,0.260938,
2011-10-05, 03:22:04,VALID,916.788,VALID,0,VALID,96.3142,VALID,0,VALID,19.9353,VALID,343,VALID,0,
2011-10-05, 03:23:04,VALID,916.784,VALID,0,VALID,96.238,VALID,0,VALID,19.9158,VALID,343,VALID,0.189453,
2011-10-05, 03:24:04,VALID,916.743,VALID,0,VALID,96.2761,VALID,0,VALID,19.9368,VALID,343,VALID,0.315625,
2011-10-05, 03:25:04,VALID,916.715,VALID,0,VALID,96.3142,VALID,0.107441,VALID,19.9353,VALID,343,VALID,0.163672,
2011-10-05, 03:26:04,VALID,916.728,VALID,0,VALID,96.299,VALID,0,VALID,19.9743,VALID,343,VALID,0,
2011-10-05, 03:27:04,VALID,916.715,VALID,0,VALID,96.2837,VALID,0,VALID,19.9743,VALID,343,VALID,0,
2011-10-05, 03:28:04,VALID,916.71,VALID,0,VALID,96.2304,VALID,0,VALID,20.0148,VALID,343,VALID,0.150391,
2011-10-05, 03:29:04,VALID,916.675,VALID,0,VALID,96.1846,VALID,0,VALID,19.9938,VALID,343,VALID,0.0589844,
2011-10-05, 03:30:04,VALID,916.663,VALID,0,VALID,96.0779,VALID,0,VALID,19.9743,VALID,343,VALID,0.366406,
2011-10-05, 03:31:04,VALID,916.649,VALID,0,VALID,96.0855,VALID,0.107441,VALID,19.9743,VALID,343,VALID,0.175391,
2011-10-05, 03:32:04,VALID,916.652,VALID,0,VALID,96.0398,VALID,0.107441,VALID,19.9743,VALID,343,VALID,0.442969,
2011-10-05, 03:33:04,VALID,916.621,VALID,0,VALID,95.9407,VALID,0,VALID,19.9743,VALID,343,VALID,0.399219,
2011-10-05, 03:34:04,VALID,916.609,VALID,0,VALID,95.8492,VALID,0,VALID,19.9368,VALID,343,VALID,0.654297,
2011-10-05, 03:35:04,VALID,916.604,VALID,0,VALID,95.8645,VALID,0,VALID,19.9173,VALID,343,VALID,0.488672,
2011-10-05, 03:36:04,VALID,916.658,VALID,0,VALID,95.8568,VALID,0,VALID,19.8978,VALID,343,VALID,0.540625,
2011-10-05, 03:37:04,VALID,916.649,VALID,0,VALID,95.8797,VALID,0,VALID,19.8783,VALID,343,VALID,0.491797,
2011-10-05, 03:38:04,VALID,916.627,VALID,0,VALID,95.9788,VALID,0,VALID,19.8588,VALID,343,VALID,0.373047,
2011-10-05, 03:39:04,VALID,916.622,VALID,0,VALID,96.0169,VALID,0,VALID,19.8798,VALID,343,VALID,0.625781,
2011-10-05, 03:40:04,VALID,916.631,VALID,0,VALID,96.0474,VALID,0,VALID,19.8393,VALID,343,VALID,0.620313,
2011-10-05, 03:41:04,VALID,916.622,VALID,0,VALID,96.0627,VALID,0,VALID,19.8393,VALID,343,VALID,0.417578,
2011-10-05, 03:42:04,VALID,916.668,VALID,0,VALID,96.055,VALID,0,VALID,19.8198,VALID,343,VALID,0.36875,
2011-10-05, 03:43:04,VALID,916.704,VALID,0,VALID,96.0398,VALID,0,VALID,19.8408,VALID,343,VALID,0.492188,
2011-10-05, 03:44:04,VALID,916.737,VALID,0,VALID,96.0932,VALID,0,VALID,19.8198,VALID,343,VALID,0.621875,
2011-10-05, 03:45:04,VALID,916.722,VALID,0,VALID,96.0779,VALID,0,VALID,19.8198,VALID,343,VALID,0.473437,
2011-10-05, 03:46:04,VALID,916.746,VALID,0,VALID,96.1541,VALID,0,VALID,19.8198,VALID,343,VALID,0.189844,
2011-10-05, 03:47:04,VALID,916.708,VALID,0,VALID,96.1923,VALID,0,VALID,19.8408,VALID,343,VALID,0.412891,